GFSFLT1_prec_radar_195.txt.gz
Reflectivity
-20 -20 -20 -20 -20 -20 -20 -20 -20 -20 -20 -20 -20 -20 -20 -20 -20 -20 -20 -20 -20 -20 -20 -20 -20 -20 -20 -20 -20 -20 -20 -20
-20 -20 -20 -20 -20 -20 -20 -20 -20 -20 -20 -20 -20 -20 -20 -20 -20 -20 -20 -20 -20 -20 -20 -20 -20 -20 -20 -20 -20 -20 -20 -20
-20 -20 -20 -20 -20 -20 -20 -20 -20 -20 -20 -20 -20 -20 -20 -20 -20 -20 -20 -20 -20 -20 -20 -20 -20 -20 -20 -20 -20 -20 -20 -20
-20 -20 -20 -20 -19 -10 -20 -20 -20 -20 -20 -20 -20 -20 -20 -20 -20 -20 -20 -20 -20 -20 -20 -20 -20 -20 -20 -20 -20 -20 -20 -20
-20 -20 -20 -20 -20 -20 -20 -20 -20 -20 10 14 -19 -20 -20 -20 -20 -20 -20 -20 -20 -20 -20 -20 -20 -20 -20 -20 -20 -20 -20 -20
-20 -20 -20 -20 -20 -20 -20 -20 20 -4 0 24 -9 -17 3 -15 -20 -20 -20 -20 -20 -20 -20 -20 -20 -20 -20 -20 -20 -20 -20 -20
-20 -20 -20 -20 -20 -20 -20 -16 -6 19 23 20 20 11 -14 -19 -20 -20 -20 -20 -20 -20 -20 -20 -20 -20 -20 -20 -20 -20 -20 -20
-20 -20 -20 -20 -20 6 27 26 -12 20 23 33 20 8 -18 -7 -4 -7 9 -4 -9 -7 -20 -20 -20 -20 -20 -20 -20 -20 -20 -20
-20 -20 -20 -20 -20 -3 21 26 20 -20 -15 12 21 -20 -14 -19 -20 -18 5 13 16 13 6 3 -20 -4 -18 -20 -20 -20 -20 -20
-20 -20 -20 -5 -5 7 34 -15 17 -20 -20 -16 21 19 -20 -20 -20 -19 -20 -5 0 12 18 -1 12 21 -7 -17 -19 -18 -20 -20
-16 -19 -20 -18 11 10 25 21 26 -5 6 15 4 15 6 -8 -14 -10 4 -7 13 16 24 16 21 11 19 13 0 30 20 26
-1 20 0 -20 -20 -5 14 27 21 7 4 9 11 26 21 33 18 8 14 21 15 20 28 34 27 28 37 32 24 10 27 27
30 38 35 14 10 -9 11 12 4 -4 16 10 19 9 14 8 11 11 23 16 26 27 7 8 13 19 25 23 17 25 25 8
4 15 40 23 21 16 15 3 -7 -17 -19 -5 10 20 19 24 17 29 26 34 20 23 13 23 35 35 34 25 -1 -20 -20 -16
6 17 4 8 6 -4 14 9 0 -17 -20 -20 -20 -7 -3 11 21 19 26 33 33 29 21 21 19 10 11 -3 -18 -2 12 -7
-20 6 15 4 -9 -3 -15 11 6 -2 -18 -20 -20 -12 8 19 19 22 29 31 33 33 30 23 25 22 16 -10 -12 -0 -4 -6
-17 -16 12 10 19 3 -20 -20 -17 -17 -20 -20 -20 -15 -9 8 17 17 17 25 21 9 16 25 11 11 12 23 13 6 -1 -3
-20 -20 8 22 23 2 -14 -12 -20 -20 -20 -20 -20 -20 -9 -3 -3 -1 3 6 13 18 10 -1 0 14 17 -10 1 1 6 12
27 4 -20 -20 17 13 -14 -20 -20 -20 -20 -20 -20 -20 -18 1 -3 3 -7 -8 -7 -12 -3 6 20 8 -6 -1 3 8 11 -3

GFSFLT1_prec_radar_198.txt.gz
Reflectivity
-20 -20 -20 -20 -20 -20 -20 -20 -20 -20 -20 -20 -20 -20 -20 -20 -20 -20 -20 -20 -20 -20 -20 -20 -20 -20 -20 -20 -20 -20 -20 -20
-20 -20 -20 -20 -20 -20 -20 -20 -20 -20 -20 -20 -20 -20 -20 -20 -20 -20 -20 -20 -20 -20 -20 -20 -20 -20 -20 -20 -20 -20 -20 -20
-20 -20 -20 -20 -20 -20 -20 -20 -20 -20 -20 -20 -20 -20 -20 -20 -20 -20 -20 -20 -20 -20 -20 -20 -20 -20 -20 -20 -20 -20 -20 -20
-20 -20 -20 -20 -20 -20 -20 -20 -20 -20 -20 -20 -20 -20 -20 -20 -20 -20 -20 -20 -20 -20 -20 -20 -20 -20 -20 -20 -20 -20 -20 -20
-20 -20 -20 -20 -20 -20 -20 -20 -20 -20 -19 4 7 -7 7 -20 -20 -20 -20 -20 -20 -20 -20 -20 -20 -20 -20 -20 -20 -20 -20 -20
-20 -20 -20 -20 -20 -20 -20 -20 -20 -20 -18 10 -12 -4 15 -9 13 -17 -3 -20 -20 -20 -20 -20 -20 -20 -20 -20 -20 -20 -20 -20
-20 -20 -20 -20 -20 -20 -8 -20 -20 16 18 15 5 14 20 21 15 15 -18 -20 -20 -20 -20 -20 -20 -20 -20 -20 -20 -20 -20 -20
-20 -20 -20 -20 -20 -15 10 10 22 22 19 20 23 24 22 22 -10 -2 16 9 3 -9 -20 -10 -20 -20 -1 1 -20 -20 -20 -19
-20 -20 -20 -20 -20 -20 18 21 23 23 26 28 27 28 24 -2 -19 -1 -10 15 8 -20 -20 7 -20 -7 3 30 18 -20 -20 -0
-20 -20 -20 -20 -20 -20 -20 17 29 22 23 22 26 46 40 15 -20 -20 -14 19 14 -12 11 4 -3 16 14 5 10 8 -13 -8
-20 -20 -20 -20 -20 -20 -20 -13 5 25 38 26 9 -5 23 3 13 6 -20 -20 2 7 12 -9 6 29 22 19 19 18 -4 -8
-20 -20 -20 -20 -20 -20 -20 -20 -20 -18 5 8 41 21 19 36 15 -14 11 14 5 16 27 -5 21 13 32 35 24 34 30 34
-20 -20 -20 -20 -20 -20 -20 -20 -7 -10 -16 14 24 26 32 22 15 18 6 -2 0 5 1 21 13 18 17 23 25 20 33 31
-20 -20 -20 -20 -20 -20 -6 -0 13 14 4 17 -2 9 25 32 29 16 19 -0 15 4 32 4 28 31 34 34 25 27 26 25
-20 -20 -20 -20 -20 -20 -16 -6 10 15 19 17 5 -19 -7 13 26 25 27 25 34 31 16 23 29 34 21 31 27 21 28 23
-20 -20 7 -20 -20 -5 16 5 -1 -6 8 -4 -20 -20 -20 -19 -6 9 20 22 30 32 28 26 24 24 19 10 14 7 2 3
-20 -20 -20 -20 -20 -3 20 31 11 -13 -20 -20 -20 -20 -20 -13 5 16 21 24 29 29 26 22 1 6 15 5 -20 -20 -20 3
-20 -20 -20 -20 -20 12 23 32 11 -20 -20 -20 -20 -20 -8 10 -15 -4 14 24 27 25 19 8 -8 2 -4 -2 -8 -13 -20 -18
-19 -20 -20 -9 17 33 25 26 9 -20 -20 -20 -20 -20 -20 -20 -20 -20 5 2 -3 2 2 2 -3 0 -7 -7 -10 1 -20 -20

GFSFLT1_prec_radar_201.txt.gz
Reflectivity
-20 -20 -20 -20 -20 -20 -20 -20 -20 -20 -20 -20 -20 -20 -20 -20 -20 -20 -20 -20 -20 -20 -20 -20 -20 -20 -20 -20 -20 -20 -20 -20
-20 -20 -20 -20 -20 -20 -20 -20 -20 -20 -20 -20 -20 -20 -20 -20 -20 -20 -20 -20 -20 -20 -20 -20 -20 -20 -20 -20 -20 -20 -20 -20
-20 -20 -20 -20 -20 -20 -20 -20 -20 -20 -20 -20 -20 -20 -20 -20 -20 -20 -20 -20 -20 -20 -20 -20 -20 -20 -20 -20 -20 -20 -20 -20
-20 -20 -20 -20 -20 -20 -20 -20 -20 -20 -20 -20 -20 -20 -20 -20 -20 -20 -20 -20 -20 -20 -20 -20 -20 -20 -20 -20 -20 -20 -20 -20
-20 -20 -20 -20 -20 -20 -20 -19 -20 -20 -20 -20 -20 -20 -20 -20 1 -12 12 -20 -20 -20 -20 -20 -20 -20 -20 -20 -20 -20 -20 -20
-20 -20 -20 -20 -20 -20 -20 -20 -20 -20 -20 -20 -20 -17 30 -19 -17 15 9 -3 8 -13 -19 -15 -20 -20 -20 -20 -20 -20 -20 -20
-20 -20 -20 -20 -20 -20 -20 -20 -20 9 7 -18 -20 -20 -6 22 12 13 15 16 15 -7 5 -19 -20 -20 -20 -20 -20 -20 -20 -20
-20 -20 -20 -20 -20 -20 -20 -20 -20 -20 5 16 4 -11 -5 5 23 22 14 15 16 2 5 -3 14 15 6 3 -4 -18 -20 -20
-20 -20 -20 -20 -20 -20 -20 -20 -20 -20 -20 4 16 9 15 13 12 27 23 13 35 25 27 20 -19 -2 13 7 8 -1 -19 -20
-20 -20 -20 -20 -20 -20 -20 -20 -20 -20 -20 -3 -5 -6 21 13 -0 17 33 30 42 46 41 19 -15 -3 14 27 29 8 12 21
-20 -20 -20 -20 -20 -20 -20 -20 -20 -20 -20 -20 -14 -10 23 19 35 42 35 31 36 35 24 25 9 -9 16 14 31 19 25 17
-20 -20 -20 -20 -20 -20 -20 -20 -20 -20 -20 -20 -20 -20 -19 29 21 40 39 29 22 31 12 26 36 -4 -3 -0 -1 10 20 28
-20 -20 -20 -20 -20 -20 -20 -20 -20 -20 -20 -20 -20 -20 -20 -20 -9 30 27 31 33 32 28 35 30 1 5 24 28 5 4 15
-20 -20 -20 -20 -20 -20 -20 -20 -20 -20 -20 -20 -20 -20 -13 9 -5 6 -12 9 33 28 39 35 28 13 26 25 6 12 15 6
-20 -20 -20 -20 -20 -20 -20 -20 -20 -20 -6 -18 -20 -19 -10 16 -3 22 15 16 25 28 32 35 29 36 32 13 -17 -12 -5 -2
-20 -20 -20 -20 -20 -20 -20 -20 -20 -17 -4 -20 -19 -20 0 13 21 15 4 15 31 34 32 27 38 31 15 -19 -14 -3 -8 -4
-20 -20 -20 -20 -20 -20 -20 -20 -20 -6 26 -6 -20 -16 3 20 18 -2 5 12 16 27 25 24 21 12 13 7 -3 -15 1 -18
-20 -20 -20 -20 -20 -20 -20 -20 -20 6 24 8 0 -20 -17 -2 12 8 9 9 12 9 8 10 -8 5 1 -11 -16 -19 -20 -20
-20 -20 -20 -20 -20 -15 -20 19 20 26 1 4 8 -5 -8 -0 13 17 17 16 17 2 -2 9 11 -4 -15 -20 -20 -20 -20 -20

GFSFLT1_prec_radar_204.txt.gz
Reflectivity
-20 -20 -20 -20 -20 -20 -20 -20 -20 -17 -3 -20 -20 -20 -20 -20 -20 -20 -20 -20 -20 -20 -20 -20 -20 -20 -20 -20 -20 -20 -20 -20
-20 -20 -20 -20 -20 -20 -20 -20 -20 -20 -4 13 14 -20 -20 -20 -20 -20 -20 -20 -20 -20 -20 -20 -20 -20 -20 -20 -20 -20 -20 -20
-20 -20 -20 -20 -20 -20 -20 -20 -20 -20 -20 -20 -2 -20 -20 -20 -20 -20 -20 -20 -20 -20 -20 -20 -20 -20 -20 -20 -20 -20 -20 -20
-20 -20 -20 -20 -20 -20 -20 -20 -20 -20 -20 -20 8 -20 -20 -20 -20 -20 -20 20 2 -20 -20 -20 -20 -20 -20 -20 -20 -20 -20 -20
-20 -20 -20 -20 -20 -20 -20 -20 -20 -20 6 19 12 -5 -20 -20 -20 -20 -3 28 19 3 -12 -19 -20 -20 -20 -20 -20 -20 -20 -20
-20 -20 -20 -20 -20 -20 -20 -20 -20 -20 -18 -2 4 -6 6 2 -1 -19 13 25 12 14 8 -20 -20 -20 -15 -14 -20 -20 -20 -20
-20 -20 -20 -20 -20 -20 -20 -20 -20 -20 -20 -8 15 3 8 13 -5 -4 -17 1 22 18 19 16 11 11 -9 -4 13 -15 -20 -20
-20 -20 -20 -20 -20 -20 -20 -20 -20 -20 -20 -20 -20 -12 -1 -18 -17 11 2 10 12 -2 -4 19 16 9 -9 -3 28 23 17 3
-20 -20 -20 -20 -20 -20 -20 -20 -20 -20 -20 -20 -20 -20 -20 -18 -20 -20 -19 3 16 12 15 11 19 23 20 37 36 45 25 25
-20 -20 -20 -20 -20 -20 -20 -20 -20 -20 -20 -20 -20 -20 -20 -20 -20 -20 -17 -14 -20 18 20 27 32 34 45 35 20 34 37 29
-20 -20 -20 -20 -20 -20 -20 -20 -20 -20 -20 -20 -20 -20 -20 -18 -20 -20 -10 -20 2 -0 15 26 28 25 36 28 23 33 20 20
-20 -20 -20 -20 -20 -20 -20 -20 -20 -20 -20 -20 -20 -20 -20 -20 -1 -20 -20 -15 -1 -20 -20 -2 10 22 33 35 36 36 38 37
-20 -20 -20 -20 -20 -20 -20 -20 -20 -20 -20 -20 -20 -20 -20 -20 -20 -20 -15 -4 -2 -20 -12 19 19 25 30 28 31 35 38 37
-20 -20 -20 -20 -20 -20 -20 -20 -20 -20 -20 -20 -20 -20 -20 -12 8 -16 -20 -8 19 -9 17 -2 3 22 17 21 32 35 39 33
-20 -20 -20 -20 -20 -20 -20 -20 -20 -20 -20 -20 -20 -20 -20 -19 8 16 13 9 11 31 14 16 9 16 35 37 34 32 34 28
-20 -20 -20 -20 -20 -20 -20 -20 -20 -20 -20 -20 -20 -20 -20 -20 -19 -6 21 29 31 34 38 33 34 38 36 34 32 32 30 23
-20 -20 -20 -20 -20 -20 -20 -20 -20 -20 -17 15 -20 -20 -19 -1 4 5 18 11 20 31 43 37 39 40 35 34 36 18 7 -17
-20 -20 -20 -20 -20 -20 -20 -20 -20 17 24 -20 -20 13 24 11 10 8 24 27 28 32 33 27 28 27 33 28 12 3 -20 -20
-20 -20 -20 -20 -20 -20 -20 -20 -20 -20 -19 -20 9 -2 -20 -16 -17 8 14 29 24 29 26 24 24 20 12 4 -9 -11 -20 -20

GFSFLT1_prec_radar_207.txt.gz
Reflectivity
-20 -20 -20 -20 -20 -0 10 11 -20 -19 -16 4 12 -19 -20 -20 -20 -20 -20 -4 -17 -3 2 -20 -20 -20 -20 -20 -20 -20 -20 -20
-20 -20 -20 -20 -20 -20 -20 -20 -12 11 7 16 6 2 5 -20 -20 -20 -20 -2 -9 18 7 -8 -20 -20 -20 -20 -20 -20 -20 -20
-20 -20 -20 -20 -20 -20 -20 -20 -20 -7 3 -13 -3 -20 -20 -15 -16 -20 -20 -20 -11 -8 3 15 -20 -20 -20 -20 -20 -20 -20 -20
-20 -20 -20 -20 -20 -20 -20 -20 -20 -20 -5 16 16 4 11 6 10 -16 1 -8 27 22 -17 10 12 -18 -20 -20 -20 -20 -20 -20
-20 -20 -20 -20 -20 -20 -20 -20 -20 -20 -20 -1 -17 -6 -0 -20 -13 -15 -20 -16 19 20 -12 22 15 7 -20 -20 -20 -20 -20 -20
-20 -20 -20 -20 -20 -20 -20 -20 -20 -20 -20 4 15 -18 5 9 -20 -20 -18 -20 -11 8 11 -20 7 -2 -8 -20 -20 -20 -20 -20
-20 -20 -20 -20 -20 -20 -20 -20 -20 -20 -20 -20 -20 -20 -20 -20 -20 -20 -20 -20 -2 7 12 6 -7 19 7 -0 -4 16 4 -15
-20 -20 -20 -20 -20 -20 -20 -20 -20 -20 -20 -20 -20 -20 -20 -20 -20 -20 -20 -20 -20 -20 -20 -5 13 20 -16 -6 11 10 4 -4
-20 -20 -20 -20 -20 -20 -20 -20 -20 -20 -20 -20 -20 -20 -20 -20 -20 -20 -20 -20 -20 -20 -20 -20 -12 6 18 15 -15 -11 26 7
-20 -20 -20 -20 -20 -20 -20 -20 -20 -20 -20 -20 -20 -20 -20 -8 -20 -20 -20 -20 -20 -20 -20 -19 -20 10 15 -1 3 10 22 33
-20 -20 -20 -20 -20 -20 -20 -20 -20 -20 -20 -20 -20 -20 -20 -14 -17 -20 -20 -20 -20 -20 -20 -20 -20 -18 8 -4 12 14 27 29
-20 -20 -20 -20 -20 -20 -20 -20 -20 -20 -20 -20 -20 -20 -20 -20 -20 -20 -20 -20 -14 -19 -19 3 -20 -16 -4 -20 -20 -17 0 4
-20 -20 -20 -20 -20 -20 -20 -20 -20 -20 -20 -20 -20 -20 -20 -20 -20 -20 -20 -19 -7 6 16 22 24 7 21 5 -13 0 17 16
-20 -20 -20 -20 -20 -20 -20 -20 -20 -20 -20 -20 -20 -20 -20 -20 -20 -20 -20 -20 -20 4 21 25 20 35 29 24 31 31 25 34
-20 -20 -20 -20 -20 -20 -20 -20 -20 -20 -20 -20 -20 -20 -20 -20 -20 -20 -20 -20 -20 -20 13 15 29 25 23 15 26 37 27 30
-20 -20 -20 -20 -20 -20 -20 -20 -20 -20 -20 -20 -20 -20 -20 -20 -20 -20 -20 -20 -20 13 22 20 23 31 30 37 35 32 36 34
-20 -20 -20 -20 -20 -20 -20 -20 -20 -20 -20 -20 -20 -14 -20 -20 -20 -20 -20 -20 -16 -13 7 35 38 34 37 32 36 40 35 33
-20 -20 -20 -20 -20 -20 -20 -20 -20 -20 -20 -20 -20 -19 -20 -20 -8 -1 1 -8 21 18 22 29 35 39 39 34 31 38 33 25
-20 -20 -20 -20 -20 -20 -20 -20 -20 -20 -20 -20 -19 -20 -18 -5 -17 -20 -20 -12 5 14 21 17 28 33 28 32 35 26 20 22